Location: Newark
(7.0858°N, 171.3717°E)
Time: 17:39:45
(UTC+00:00)

Altair - Pass Details

Date: 04 December 2020
Orbit: 1501 x 1682 km, 47.2° (Epoch: 20 January)

Event Time Altitude Azimuth Distance (km) Brightness Sun altitude
Exits shadow 16:56:01 35° 275° (W) 2,299 7.9 -23.2°
Maximum altitude 16:59:16 46° 231° (SW) 1,998 7.8 -22.5°
Drops below altitude 10° 17:08:19 10° 161° (SSE) 3,803 10.1 -20.4°
Sets 17:11:40 0° 155° (SSE) 4,815 10.8 -19.6°
